Volver al catálogo

STARLINK-32814

ActivoComunicacionesVLEO
NORAD 62871·PAYLOAD·🇺🇸 United States

Lanzado Feb 1, 2025 desde Vandenberg Space Force Base

Loading…

Próximos Pases (próximas 24 horas)

TLE

ActualizadoSource: CelesTrak SupGP

Época: Sep 15, 2026, 03:29 UTC

1 62871C 25022T   26258.14562500  .00057135  00000+0  16880-2 0  2584
2 62871  53.1583 326.4107 0001106  90.9051 205.3337 15.34363513    14

Sigue STARLINK-32814 en tiempo real con AllMySat

Download on the App Store